,,Stat6,,Stat2,,Stat8,,Stat9,,Stat10,,Wind1,,Wind1,
time,status,PA1M_AVG,status,PR1M_SUM,status,RH1M_AVG,status,SR1M_AVG,status,TA1M_AVG,status,W1dAve1m,status,W1sAve1m,
2007-09-22, 00:00:00,VALID,917.506,VALID,0,VALID,100,VALID,-0.0169808,VALID,20.1698,VALID,125,VALID,1.02382,
2007-09-22, 00:01:00,VALID,917.533,VALID,0,VALID,100,VALID,-0.0339617,VALID,20.1506,VALID,128,VALID,0.809896,
2007-09-22, 00:02:00,VALID,917.542,VALID,0,VALID,100,VALID,-0.0509425,VALID,20.1376,VALID,121,VALID,0.611192,
2007-09-22, 00:03:00,VALID,917.567,VALID,0,VALID,100,VALID,-0.0339617,VALID,20.1276,VALID,119,VALID,0.452398,
2007-09-22, 00:04:00,VALID,917.54,VALID,0,VALID,100,VALID,-0.0509425,VALID,20.1211,VALID,143,VALID,0.708984,
2007-09-22, 00:05:00,VALID,917.539,VALID,0,VALID,100,VALID,-0.0169808,VALID,20.1146,VALID,140,VALID,0.855841,
2007-09-22, 00:06:00,VALID,917.566,VALID,0,VALID,100,VALID,-0.0339617,VALID,20.1244,VALID,152,VALID,0.645559,
2007-09-22, 00:07:00,VALID,917.571,VALID,0,VALID,100,VALID,-0.169808,VALID,20.1256,VALID,163,VALID,0.914063,
2007-09-22, 00:08:00,VALID,917.6,VALID,0,VALID,100,VALID,-0.135847,VALID,20.1189,VALID,158,VALID,0.865513,
2007-09-22, 00:09:00,VALID,917.61,VALID,0,VALID,100,VALID,-0.135847,VALID,20.1129,VALID,144,VALID,0.715661,
2007-09-22, 00:10:00,VALID,917.629,VALID,0,VALID,100,VALID,-0.152827,VALID,20.1062,VALID,133,VALID,0.736178,
2007-09-22, 00:11:00,VALID,917.651,VALID,0,VALID,100,VALID,-0.101885,VALID,20.1194,VALID,144,VALID,0.603468,
2007-09-22, 00:12:00,VALID,917.686,VALID,0,VALID,100,VALID,-0.118866,VALID,20.1022,VALID,155,VALID,0.948661,
2007-09-22, 00:13:00,VALID,917.732,VALID,0,VALID,100,VALID,-0.118866,VALID,20.1129,VALID,158,VALID,0.492388,
2007-09-22, 00:14:00,VALID,917.758,VALID,0,VALID,100,VALID,-0.169808,VALID,20.1162,VALID,141,VALID,0.46596,
2007-09-22, 00:15:00,VALID,917.781,VALID,0,VALID,100,VALID,-0.135847,VALID,20.1194,VALID,137,VALID,0.0901163,
2007-09-22, 00:16:00,VALID,917.788,VALID,0,VALID,100,VALID,-0.118866,VALID,20.1286,VALID,141,VALID,0.252477,
2007-09-22, 00:17:00,VALID,917.8,VALID,0,VALID,100,VALID,-0.118866,VALID,20.1451,VALID,151,VALID,0.427734,
2007-09-22, 00:18:00,VALID,917.799,VALID,0,VALID,100,VALID,-0.135847,VALID,20.1451,VALID,147,VALID,0.203852,
2007-09-22, 00:19:00,VALID,917.783,VALID,0,VALID,100,VALID,-0.101885,VALID,20.1516,VALID,166,VALID,0.348264,
2007-09-22, 00:20:00,VALID,917.773,VALID,0,VALID,100,VALID,-0.118866,VALID,20.1611,VALID,170,VALID,0.695833,
2007-09-22, 00:21:00,VALID,917.753,VALID,0,VALID,100,VALID,-0.118866,VALID,20.1481,VALID,155,VALID,0.513867,
2007-09-22, 00:22:00,VALID,917.747,VALID,0,VALID,100,VALID,-0.0339617,VALID,20.1401,VALID,163,VALID,0.329883,
2007-09-22, 00:23:00,VALID,917.735,VALID,0,VALID,100,VALID,0,VALID,20.1398,VALID,162,VALID,0.441502,
2007-09-22, 00:24:00,VALID,917.743,VALID,0,VALID,100,VALID,-0.0339617,VALID,20.1371,VALID,178,VALID,0.574963,
2007-09-22, 00:25:00,VALID,917.759,VALID,0,VALID,100,VALID,-0.0169808,VALID,20.1309,VALID,173,VALID,0.873698,
2007-09-22, 00:26:00,VALID,917.763,VALID,0,VALID,100,VALID,-0.0169808,VALID,20.1276,VALID,188,VALID,0.611328,
2007-09-22, 00:27:00,VALID,917.764,VALID,0,VALID,100,VALID,-0.0509425,VALID,20.1403,VALID,202,VALID,0.329397,
2007-09-22, 00:28:00,VALID,917.753,VALID,0,VALID,100,VALID,-0.0169808,VALID,20.1503,VALID,191,VALID,0.203488,
2007-09-22, 00:29:00,VALID,917.743,VALID,0,VALID,100,VALID,-0.0509425,VALID,20.1501,VALID,176,VALID,0.57298,
2007-09-22, 00:30:00,VALID,917.735,VALID,0,VALID,100,VALID,-0.0339617,VALID,20.1498,VALID,142,VALID,0.533482,
2007-09-22, 00:31:00,VALID,917.716,VALID,0,VALID,100,VALID,0,VALID,20.1533,VALID,155,VALID,0.439757,
2007-09-22, 00:32:00,VALID,917.701,VALID,0,VALID,100,VALID,-0.0169808,VALID,20.1371,VALID,134,VALID,0.405918,
2007-09-22, 00:33:00,VALID,917.684,VALID,0,VALID,100,VALID,0,VALID,20.1079,VALID,107,VALID,0.805959,
2007-09-22, 00:34:00,VALID,917.664,VALID,0,VALID,100,VALID,-0.0509425,VALID,20.1081,VALID,83,VALID,0.874809,
2007-09-22, 00:35:00,VALID,917.643,VALID,0,VALID,100,VALID,0,VALID,20.1011,VALID,83,VALID,0.912574,
2007-09-22, 00:36:00,VALID,917.612,VALID,0,VALID,100,VALID,0,VALID,20.0747,VALID,63,VALID,0.99184,
2007-09-22, 00:37:00,VALID,917.599,VALID,0,VALID,100,VALID,0,VALID,20.055,VALID,71,VALID,1.17478,
2007-09-22, 00:38:00,VALID,917.594,VALID,0,VALID,100,VALID,-0.0339617,VALID,20.062,VALID,55,VALID,0.809375,
2007-09-22, 00:39:00,VALID,917.568,VALID,0,VALID,100,VALID,0,VALID,20.0425,VALID,50,VALID,0.933222,
2007-09-22, 00:40:00,VALID,917.557,VALID,0,VALID,100,VALID,0,VALID,20.026,VALID,52,VALID,0.783668,
2007-09-22, 00:41:00,VALID,917.543,VALID,0,VALID,100,VALID,-0.0169808,VALID,19.9801,VALID,51,VALID,0.775799,
2007-09-22, 00:42:00,VALID,917.545,VALID,0,VALID,100,VALID,-0.0169808,VALID,19.9738,VALID,36,VALID,0.856707,
2007-09-22, 00:43:00,VALID,917.556,VALID,0,VALID,100,VALID,0,VALID,19.9646,VALID,40,VALID,0.897294,
2007-09-22, 00:44:00,VALID,917.547,VALID,0,VALID,100,VALID,0,VALID,19.9644,VALID,40,VALID,0.673692,
2007-09-22, 00:45:00,VALID,917.554,VALID,0,VALID,100,VALID,0,VALID,19.9611,VALID,48,VALID,0.701637,
2007-09-22, 00:46:00,VALID,917.556,VALID,0,VALID,100,VALID,-0.0169808,VALID,19.9516,VALID,61,VALID,0.586301,
2007-09-22, 00:47:00,VALID,917.558,VALID,0,VALID,100,VALID,0,VALID,19.9387,VALID,56,VALID,0.605183,
2007-09-22, 00:48:00,VALID,917.561,VALID,0,VALID,100,VALID,0,VALID,19.9352,VALID,38,VALID,0.761719,
2007-09-22, 00:49:00,VALID,917.553,VALID,0,VALID,100,VALID,-0.0169808,VALID,19.9259,VALID,25,VALID,0.929688,
2007-09-22, 00:50:00,VALID,917.56,VALID,0,VALID,100,VALID,-0.0169808,VALID,19.851,VALID,28,VALID,1.11291,
2007-09-22, 00:51:00,VALID,917.555,VALID,0,VALID,100,VALID,-0.0339617,VALID,19.7827,VALID,42,VALID,1.06445,
2007-09-22, 00:52:00,VALID,917.56,VALID,0,VALID,100,VALID,-0.0509425,VALID,19.7552,VALID,42,VALID,1.11151,
2007-09-22, 00:53:00,VALID,917.549,VALID,0,VALID,100,VALID,-0.101885,VALID,19.72,VALID,45,VALID,1.14615,
2007-09-22, 00:54:00,VALID,917.541,VALID,0,VALID,100,VALID,-0.101885,VALID,19.713,VALID,36,VALID,1.10029,
2007-09-22, 00:55:00,VALID,917.544,VALID,0,VALID,100,VALID,-0.101885,VALID,19.6833,VALID,42,VALID,1.14658,
2007-09-22, 00:56:00,VALID,917.506,VALID,0,VALID,100,VALID,-0.101885,VALID,19.6741,VALID,46,VALID,0.935501,
2007-09-22, 00:57:00,VALID,917.502,VALID,0,VALID,100,VALID,-0.0679233,VALID,19.6581,VALID,47,VALID,1.00345,
2007-09-22, 00:58:00,VALID,917.478,VALID,0,VALID,100,VALID,-0.118866,VALID,19.6391,VALID,43,VALID,0.786595,
2007-09-22, 00:59:00,VALID,917.453,VALID,0,VALID,100,VALID,-0.135847,VALID,19.6554,VALID,58,VALID,0.737909,
2007-09-22, 01:00:00,VALID,917.42,VALID,0,VALID,100,VALID,-0.135847,VALID,19.6519,VALID,66,VALID,0.914789,
2007-09-22, 01:01:00,VALID,917.386,VALID,0,VALID,100,VALID,-0.118866,VALID,19.6519,VALID,68,VALID,0.55545,
2007-09-22, 01:02:00,VALID,917.369,VALID,0,VALID,100,VALID,-0.101885,VALID,19.6354,VALID,79,VALID,0.819602,
2007-09-22, 01:03:00,VALID,917.343,VALID,0,VALID,100,VALID,-0.101885,VALID,19.6516,VALID,81,VALID,0.5625,
2007-09-22, 01:04:00,VALID,917.3,VALID,0,VALID,100,VALID,-0.0849042,VALID,19.6514,VALID,76,VALID,0.786222,
2007-09-22, 01:05:00,VALID,917.288,VALID,0,VALID,100,VALID,-0.0849042,VALID,19.6451,VALID,70,VALID,0.755078,
2007-09-22, 01:06:00,VALID,917.273,VALID,0,VALID,100,VALID,-0.101885,VALID,19.6252,VALID,70,VALID,0.40282,
2007-09-22, 01:07:00,VALID,917.264,VALID,0,VALID,100,VALID,0.0169808,VALID,19.6534,VALID,64,VALID,0.425604,
2007-09-22, 01:08:00,VALID,917.232,VALID,0,VALID,100,VALID,0.0339617,VALID,19.6432,VALID,60,VALID,0.464334,
2007-09-22, 01:09:00,VALID,917.221,VALID,0,VALID,100,VALID,0,VALID,19.6042,VALID,60,VALID,0.281944,
2007-09-22, 01:10:00,VALID,917.213,VALID,0,VALID,100,VALID,0,VALID,19.588,VALID,60,VALID,0.0533854,
2007-09-22, 01:11:00,VALID,917.173,VALID,0,VALID,100,VALID,0,VALID,19.5942,VALID,60,VALID,0,
2007-09-22, 01:12:00,VALID,917.169,VALID,0,VALID,100,VALID,0.0169808,VALID,19.5882,VALID,60,VALID,0.0732887,
2007-09-22, 01:13:00,VALID,917.146,VALID,0,VALID,100,VALID,0,VALID,19.592,VALID,60,VALID,0.25279,
2007-09-22, 01:14:00,VALID,917.132,VALID,0,VALID,100,VALID,-0.0169808,VALID,19.6085,VALID,60,VALID,0.283537,
2007-09-22, 01:15:00,VALID,917.116,VALID,0,VALID,100,VALID,-0.0169808,VALID,19.5818,VALID,60,VALID,0.301639,
2007-09-22, 01:16:00,VALID,917.116,VALID,0,VALID,100,VALID,0,VALID,19.602,VALID,60,VALID,0.267078,
2007-09-22, 01:17:00,VALID,917.124,VALID,0,VALID,100,VALID,-0.0169808,VALID,19.5885,VALID,60,VALID,0.358984,
2007-09-22, 01:18:00,VALID,917.119,VALID,0,VALID,100,VALID,0,VALID,19.579,VALID,27,VALID,0.359566,
2007-09-22, 01:19:00,VALID,917.143,VALID,0,VALID,100,VALID,-0.0169808,VALID,19.5815,VALID,20,VALID,0.246838,
2007-09-22, 01:20:00,VALID,917.132,VALID,0,VALID,100,VALID,0,VALID,19.6047,VALID,19,VALID,0.122954,
2007-09-22, 01:21:00,VALID,917.13,VALID,0,VALID,100,VALID,0.0339617,VALID,19.5845,VALID,19,VALID,0.0435547,
2007-09-22, 01:22:00,VALID,917.105,VALID,0,VALID,100,VALID,-0.101885,VALID,19.5837,VALID,19,VALID,0.29988,
2007-09-22, 01:23:00,VALID,917.104,VALID,0,VALID,100,VALID,-0.0849042,VALID,19.554,VALID,17,VALID,0.489644,
2007-09-22, 01:24:00,VALID,917.102,VALID,0,VALID,100,VALID,-0.118866,VALID,19.5218,VALID,91,VALID,0.621911,
2007-09-22, 01:25:00,VALID,917.103,VALID,0,VALID,100,VALID,-0.101885,VALID,19.5054,VALID,204,VALID,0.737038,
2007-09-22, 01:26:00,VALID,917.11,VALID,0,VALID,100,VALID,-0.101885,VALID,19.4956,VALID,217,VALID,0.760901,
2007-09-22, 01:27:00,VALID,917.093,VALID,0,VALID,100,VALID,-0.118866,VALID,19.4724,VALID,209,VALID,0.615141,
2007-09-22, 01:28:00,VALID,917.068,VALID,0,VALID,100,VALID,-0.0849042,VALID,19.4597,VALID,185,VALID,1.0705,
2007-09-22, 01:29:00,VALID,917.047,VALID,0,VALID,100,VALID,-0.0849042,VALID,19.4303,VALID,171,VALID,0.771257,
2007-09-22, 01:30:00,VALID,917.025,VALID,0,VALID,100,VALID,-0.0849042,VALID,19.4308,VALID,167,VALID,0.537899,
2007-09-22, 01:31:00,VALID,917.019,VALID,0,VALID,100,VALID,-0.101885,VALID,19.4083,VALID,167,VALID,0.520089,
2007-09-22, 01:32:00,VALID,917.015,VALID,0,VALID,100,VALID,-0.101885,VALID,19.4046,VALID,167,VALID,0.181597,
2007-09-22, 01:33:00,VALID,917.016,VALID,0,VALID,100,VALID,-0.101885,VALID,19.411,VALID,172,VALID,0.247332,
2007-09-22, 01:34:00,VALID,917.004,VALID,0,VALID,100,VALID,-0.101885,VALID,19.4208,VALID,181,VALID,0.559451,
2007-09-22, 01:35:00,VALID,916.981,VALID,0,VALID,100,VALID,-0.101885,VALID,19.4238,VALID,180,VALID,1.07478,
2007-09-22, 01:36:00,VALID,916.958,VALID,0,VALID,100,VALID,-0.0849042,VALID,19.4465,VALID,171,VALID,0.747456,
2007-09-22, 01:37:00,VALID,916.926,VALID,0,VALID,100,VALID,-0.0339617,VALID,19.442,VALID,173,VALID,0.752725,
2007-09-22, 01:38:00,VALID,916.898,VALID,0,VALID,100,VALID,-0.0169808,VALID,19.435,VALID,168,VALID,0.805246,
2007-09-22, 01:39:00,VALID,916.868,VALID,0,VALID,100,VALID,-0.0169808,VALID,19.4485,VALID,166,VALID,0.570313,
2007-09-22, 01:40:00,VALID,916.865,VALID,0,VALID,100,VALID,-0.0509425,VALID,19.4615,VALID,162,VALID,0.343349,
2007-09-22, 01:41:00,VALID,916.845,VALID,0,VALID,100,VALID,0,VALID,19.4612,VALID,162,VALID,0.313227,
2007-09-22, 01:42:00,VALID,916.827,VALID,0,VALID,100,VALID,0,VALID,19.4545,VALID,170,VALID,0.533975,
2007-09-22, 01:43:00,VALID,916.819,VALID,0,VALID,100,VALID,-0.0339617,VALID,19.4612,VALID,176,VALID,0.678516,
2007-09-22, 01:44:00,VALID,916.82,VALID,0,VALID,100,VALID,-0.0339617,VALID,19.458,VALID,176,VALID,0.674293,
2007-09-22, 01:45:00,VALID,916.817,VALID,0,VALID,100,VALID,-0.0509425,VALID,19.468,VALID,176,VALID,0.765278,
2007-09-22, 01:46:00,VALID,916.815,VALID,0,VALID,100,VALID,-0.0169808,VALID,19.4685,VALID,176,VALID,0.538154,
2007-09-22, 01:47:00,VALID,916.805,VALID,0,VALID,100,VALID,-0.0169808,VALID,19.4388,VALID,162,VALID,0.612723,
2007-09-22, 01:48:00,VALID,916.816,VALID,0,VALID,100,VALID,0,VALID,19.4385,VALID,162,VALID,0.554878,
2007-09-22, 01:49:00,VALID,916.799,VALID,0,VALID,100,VALID,-0.0169808,VALID,19.4288,VALID,162,VALID,0.271949,
2007-09-22, 01:50:00,VALID,916.803,VALID,0,VALID,100,VALID,-0.0169808,VALID,19.4285,VALID,159,VALID,0.519159,
2007-09-22, 01:51:00,VALID,916.79,VALID,0,VALID,100,VALID,-0.0509425,VALID,19.439,VALID,150,VALID,0.779978,
2007-09-22, 01:52:00,VALID,916.787,VALID,0,VALID,100,VALID,-0.0169808,VALID,19.4358,VALID,141,VALID,0.892078,
2007-09-22, 01:53:00,VALID,916.787,VALID,0,VALID,100,VALID,-0.0509425,VALID,19.4288,VALID,146,VALID,1,
2007-09-22, 01:54:00,VALID,916.806,VALID,0,VALID,100,VALID,-0.0339617,VALID,19.4223,VALID,149,VALID,0.876453,
2007-09-22, 01:55:00,VALID,916.823,VALID,0,VALID,100,VALID,-0.0339617,VALID,19.4323,VALID,165,VALID,0.737038,
2007-09-22, 01:56:00,VALID,916.835,VALID,0,VALID,100,VALID,-0.0509425,VALID,19.452,VALID,168,VALID,0.71317,
2007-09-22, 01:57:00,VALID,916.844,VALID,0,VALID,100,VALID,-0.0339617,VALID,19.459,VALID,162,VALID,0.726563,
2007-09-22, 01:58:00,VALID,916.842,VALID,0,VALID,100,VALID,-0.0849042,VALID,19.4587,VALID,159,VALID,0.836648,
2007-09-22, 01:59:00,VALID,916.834,VALID,0,VALID,100,VALID,-0.0679233,VALID,19.4625,VALID,149,VALID,0.486919,
2007-09-22, 02:00:00,VALID,916.822,VALID,0,VALID,100,VALID,-0.0679233,VALID,19.4655,VALID,147,VALID,0.512957,
2007-09-22, 02:01:00,VALID,916.818,VALID,0,VALID,100,VALID,-0.0679233,VALID,19.452,VALID,128,VALID,0.56577,
2007-09-22, 02:02:00,VALID,916.8,VALID,0,VALID,100,VALID,-0.0509425,VALID,19.429,VALID,130,VALID,0.662109,
2007-09-22, 02:03:00,VALID,916.806,VALID,0,VALID,100,VALID,0,VALID,19.449,VALID,139,VALID,1.34337,
2007-09-22, 02:04:00,VALID,916.814,VALID,0,VALID,100,VALID,-0.0339617,VALID,19.4483,VALID,140,VALID,0.630382,
2007-09-22, 02:05:00,VALID,916.796,VALID,0,VALID,100,VALID,0,VALID,19.465,VALID,146,VALID,0.814546,
2007-09-22, 02:06:00,VALID,916.818,VALID,0,VALID,100,VALID,-0.0509425,VALID,19.4712,VALID,153,VALID,0.683966,
2007-09-22, 02:07:00,VALID,916.817,VALID,0,VALID,100,VALID,0,VALID,19.4742,VALID,154,VALID,0.943164,
2007-09-22, 02:08:00,VALID,916.819,VALID,0.2,VALID,100,VALID,-0.0509425,VALID,19.4872,VALID,163,VALID,1.08739,
2007-09-22, 02:09:00,VALID,916.836,VALID,0,VALID,100,VALID,-0.0169808,VALID,19.4999,VALID,142,VALID,0.569247,
2007-09-22, 02:10:00,VALID,916.841,VALID,0,VALID,100,VALID,-0.0169808,VALID,19.5064,VALID,184,VALID,0.206321,
2007-09-22, 02:11:00,VALID,916.862,VALID,0,VALID,100,VALID,0,VALID,19.5196,VALID,162,VALID,0.145089,
2007-09-22, 02:12:00,VALID,916.862,VALID,0,VALID,100,VALID,-0.0169808,VALID,19.5259,VALID,152,VALID,0.00372024,
2007-09-22, 02:13:00,VALID,916.855,VALID,0,VALID,100,VALID,-0.0679233,VALID,19.5229,VALID,150,VALID,0.207127,
2007-09-22, 02:14:00,VALID,916.874,VALID,0,VALID,100,VALID,-0.0169808,VALID,19.5134,VALID,145,VALID,0.3508,
2007-09-22, 02:15:00,VALID,916.88,VALID,0,VALID,100,VALID,-0.0169808,VALID,19.4969,VALID,140,VALID,0.327344,
2007-09-22, 02:16:00,VALID,916.894,VALID,0,VALID,100,VALID,-0.0169808,VALID,19.4837,VALID,139,VALID,0.449491,
2007-09-22, 02:17:00,VALID,916.923,VALID,0,VALID,100,VALID,-0.0169808,VALID,19.4972,VALID,127,VALID,0.523082,
2007-09-22, 02:18:00,VALID,916.946,VALID,0,VALID,100,VALID,-0.0509425,VALID,19.5134,VALID,117,VALID,0.364397,
2007-09-22, 02:19:00,VALID,916.948,VALID,0,VALID,100,VALID,-0.0339617,VALID,19.5266,VALID,101,VALID,0.464748,
2007-09-22, 02:20:00,VALID,916.957,VALID,0,VALID,100,VALID,-0.0339617,VALID,19.5164,VALID,99,VALID,0.21946,
2007-09-22, 02:21:00,VALID,916.955,VALID,0,VALID,100,VALID,-0.0339617,VALID,19.5196,VALID,99,VALID,0.513529,
2007-09-22, 02:22:00,VALID,916.962,VALID,0,VALID,100,VALID,0,VALID,19.5264,VALID,92,VALID,0.499809,
2007-09-22, 02:23:00,VALID,916.969,VALID,0,VALID,100,VALID,0,VALID,19.5326,VALID,87,VALID,0.67721,
2007-09-22, 02:24:00,VALID,916.97,VALID,0,VALID,100,VALID,-0.0169808,VALID,19.5386,VALID,90,VALID,0.652832,
2007-09-22, 02:25:00,VALID,916.99,VALID,0,VALID,100,VALID,-0.0169808,VALID,19.5456,VALID,97,VALID,0.74343,
2007-09-22, 02:26:00,VALID,917.014,VALID,0,VALID,100,VALID,0,VALID,19.5391,VALID,92,VALID,0.578974,
2007-09-22, 02:27:00,VALID,917.019,VALID,0,VALID,100,VALID,-0.0169808,VALID,19.5294,VALID,78,VALID,0.707126,
2007-09-22, 02:28:00,VALID,917.022,VALID,0,VALID,100,VALID,-0.0849042,VALID,19.5164,VALID,73,VALID,0.811166,
2007-09-22, 02:29:01,VALID,917.02,VALID,0,VALID,100,VALID,-0.0169808,VALID,19.4837,VALID,75,VALID,1.14844,
2007-09-22, 02:30:00,VALID,917.028,VALID,0,VALID,100,VALID,-0.0339617,VALID,19.471,VALID,63,VALID,0.946875,
2007-09-22, 02:31:00,VALID,917.025,VALID,0,VALID,100,VALID,0,VALID,19.4612,VALID,54,VALID,0.834223,
2007-09-22, 02:32:00,VALID,917.026,VALID,0,VALID,100,VALID,0,VALID,19.4513,VALID,62,VALID,0.717535,
2007-09-22, 02:33:01,VALID,917.031,VALID,0,VALID,100,VALID,-0.0169808,VALID,19.435,VALID,71,VALID,0.915968,
2007-09-22, 02:34:00,VALID,917.015,VALID,0,VALID,100,VALID,0,VALID,19.4323,VALID,78,VALID,1.26389,
2007-09-22, 02:35:00,VALID,917.017,VALID,0,VALID,100,VALID,-0.0169808,VALID,19.4288,VALID,74,VALID,1.33703,
2007-09-22, 02:36:00,VALID,917.015,VALID,0,VALID,100,VALID,0,VALID,19.4325,VALID,66,VALID,1.17898,
2007-09-22, 02:37:00,VALID,917.026,VALID,0,VALID,100,VALID,-0.0169808,VALID,19.4195,VALID,74,VALID,1.14863,
2007-09-22, 02:38:00,VALID,917.036,VALID,0,VALID,100,VALID,-0.0509425,VALID,19.3996,VALID,63,VALID,1.13125,
2007-09-22, 02:39:01,VALID,917.048,VALID,0,VALID,100,VALID,-0.0339617,VALID,19.4066,VALID,70,VALID,1.15141,
2007-09-22, 02:40:00,VALID,917.059,VALID,0,VALID,100,VALID,-0.0339617,VALID,19.3899,VALID,65,VALID,1.02598,
2007-09-22, 02:41:01,VALID,917.077,VALID,0,VALID,100,VALID,0.0169808,VALID,19.4093,VALID,71,VALID,1.0811,
2007-09-22, 02:42:00,VALID,917.079,VALID,0,VALID,100,VALID,0,VALID,19.4093,VALID,77,VALID,1.07087,
2007-09-22, 02:43:01,VALID,917.063,VALID,0,VALID,100,VALID,-0.0169808,VALID,19.4158,VALID,81,VALID,1.07085,
2007-09-22, 02:44:00,VALID,917.052,VALID,0,VALID,100,VALID,-0.0339617,VALID,19.4265,VALID,71,VALID,0.799782,
2007-09-22, 02:45:00,VALID,917.016,VALID,0,VALID,100,VALID,0,VALID,19.4195,VALID,70,VALID,0.702195,
2007-09-22, 02:46:01,VALID,916.979,VALID,0,VALID,100,VALID,-0.0339617,VALID,19.4168,VALID,70,VALID,0.52846,
2007-09-22, 02:47:01,VALID,916.953,VALID,0,VALID,100,VALID,-0.0169808,VALID,19.42,VALID,70,VALID,0.462754,
2007-09-22, 02:48:01,VALID,916.925,VALID,0,VALID,100,VALID,-0.0169808,VALID,19.4036,VALID,70,VALID,0.591992,
2007-09-22, 02:49:00,VALID,916.9,VALID,0,VALID,100,VALID,-0.0339617,VALID,19.4006,VALID,73,VALID,0.564631,
2007-09-22, 02:50:00,VALID,916.868,VALID,0,VALID,100,VALID,-0.0679233,VALID,19.3836,VALID,73,VALID,0.400856,
2007-09-22, 02:51:00,VALID,916.845,VALID,0,VALID,100,VALID,-0.0169808,VALID,19.3701,VALID,89,VALID,0.633929,
2007-09-22, 02:52:01,VALID,916.843,VALID,0,VALID,100,VALID,0,VALID,19.3639,VALID,109,VALID,0.792882,
2007-09-22, 02:53:01,VALID,916.837,VALID,0,VALID,100,VALID,0,VALID,19.3572,VALID,101,VALID,0.801639,
2007-09-22, 02:54:00,VALID,916.819,VALID,0,VALID,100,VALID,-0.0339617,VALID,19.3544,VALID,112,VALID,0.793445,
2007-09-22, 02:55:00,VALID,916.817,VALID,0,VALID,100,VALID,0,VALID,19.3449,VALID,121,VALID,0.844131,
2007-09-22, 02:56:01,VALID,916.798,VALID,0,VALID,100,VALID,-0.0169808,VALID,19.3484,VALID,132,VALID,0.916109,
2007-09-22, 02:57:00,VALID,916.796,VALID,0,VALID,100,VALID,-0.0509425,VALID,19.3384,VALID,118,VALID,0.650799,
2007-09-22, 02:58:00,VALID,916.777,VALID,0,VALID,100,VALID,-0.0509425,VALID,19.3487,VALID,76,VALID,0.749442,
2007-09-22, 02:59:00,VALID,916.738,VALID,0,VALID,100,VALID,0,VALID,19.332,VALID,78,VALID,0.845424,
2007-09-22, 03:00:01,VALID,916.729,VALID,0,VALID,100,VALID,0,VALID,19.3157,VALID,77,VALID,0.911966,
2007-09-22, 03:01:00,VALID,916.714,VALID,0,VALID,100,VALID,-0.0169808,VALID,19.3028,VALID,88,VALID,0.93859,
2007-09-22, 03:02:01,VALID,916.694,VALID,0,VALID,100,VALID,-0.0169808,VALID,19.2958,VALID,64,VALID,0.736285,
2007-09-22, 03:03:01,VALID,916.689,VALID,0,VALID,100,VALID,0,VALID,19.2796,VALID,45,VALID,0.927202,
2007-09-22, 03:04:00,VALID,916.67,VALID,0,VALID,100,VALID,-0.0339617,VALID,19.2731,VALID,48,VALID,0.729651,
2007-09-22, 03:05:00,VALID,916.651,VALID,0,VALID,100,VALID,-0.0169808,VALID,19.2728,VALID,51,VALID,0.681141,
2007-09-22, 03:06:00,VALID,916.633,VALID,0,VALID,100,VALID,-0.0339617,VALID,19.2569,VALID,54,VALID,0.654102,
2007-09-22, 03:07:00,VALID,916.619,VALID,0,VALID,100,VALID,-0.0169808,VALID,19.2436,VALID,54,VALID,0.36772,
2007-09-22, 03:08:01,VALID,916.601,VALID,0,VALID,100,VALID,-0.0169808,VALID,19.2506,VALID,54,VALID,0.045277,
2007-09-22, 03:09:00,VALID,916.593,VALID,0,VALID,100,VALID,0,VALID,19.2409,VALID,54,VALID,0,
2007-09-22, 03:10:00,VALID,916.603,VALID,0,VALID,100,VALID,-0.0169808,VALID,19.2411,VALID,54,VALID,0,
2007-09-22, 03:11:00,VALID,916.603,VALID,0,VALID,100,VALID,-0.0169808,VALID,19.2341,VALID,54,VALID,0,
2007-09-22, 03:12:00,VALID,916.606,VALID,0,VALID,100,VALID,-0.0169808,VALID,19.2446,VALID,54,VALID,0,
2007-09-22, 03:13:00,VALID,916.622,VALID,0,VALID,100,VALID,0.0169808,VALID,19.2281,VALID,54,VALID,0,
2007-09-22, 03:14:00,VALID,916.611,VALID,0,VALID,100,VALID,-0.0169808,VALID,19.2052,VALID,54,VALID,0,
2007-09-22, 03:15:00,VALID,916.618,VALID,0,VALID,100,VALID,-0.0339617,VALID,19.1827,VALID,54,VALID,0,
2007-09-22, 03:16:00,VALID,916.597,VALID,0,VALID,100,VALID,0,VALID,19.189,VALID,54,VALID,0,
2007-09-22, 03:17:01,VALID,916.586,VALID,0,VALID,100,VALID,-0.0339617,VALID,19.1982,VALID,54,VALID,0,
2007-09-22, 03:18:00,VALID,916.578,VALID,0,VALID,100,VALID,-0.0339617,VALID,19.2154,VALID,54,VALID,0,
2007-09-22, 03:19:01,VALID,916.577,VALID,0,VALID,100,VALID,-0.0339617,VALID,19.2089,VALID,54,VALID,0,
2007-09-22, 03:20:01,VALID,916.567,VALID,0,VALID,100,VALID,-0.0679233,VALID,19.173,VALID,54,VALID,0,
2007-09-22, 03:21:01,VALID,916.543,VALID,0,VALID,100,VALID,-0.0339617,VALID,19.176,VALID,54,VALID,0.0285823,
2007-09-22, 03:22:01,VALID,916.516,VALID,0,VALID,100,VALID,-0.0169808,VALID,19.1723,VALID,54,VALID,0.207031,
2007-09-22, 03:23:01,VALID,916.488,VALID,0,VALID,100,VALID,-0.0169808,VALID,19.1855,VALID,54,VALID,0.324886,
2007-09-22, 03:24:01,VALID,916.462,VALID,0,VALID,100,VALID,-0.0169808,VALID,19.1957,VALID,54,VALID,0.243862,
2007-09-22, 03:25:01,VALID,916.441,VALID,0,VALID,100,VALID,0,VALID,19.1785,VALID,54,VALID,0.0134766,
2007-09-22, 03:26:01,VALID,916.431,VALID,0,VALID,100,VALID,0,VALID,19.1625,VALID,54,VALID,0,
2007-09-22, 03:27:01,VALID,916.415,VALID,0,VALID,100,VALID,-0.0169808,VALID,19.0882,VALID,54,VALID,0,
2007-09-22, 03:28:01,VALID,916.404,VALID,0,VALID,100,VALID,0.0169808,VALID,19.0131,VALID,54,VALID,0,
2007-09-22, 03:29:01,VALID,916.385,VALID,0,VALID,100,VALID,-0.0169808,VALID,18.9874,VALID,54,VALID,0.0422247,
2007-09-22, 03:30:00,VALID,916.371,VALID,0,VALID,100,VALID,-0.0169808,VALID,18.9649,VALID,54,VALID,0.378906,
2007-09-22, 03:31:00,VALID,916.362,VALID,0,VALID,100,VALID,-0.0169808,VALID,18.9357,VALID,102,VALID,0.606055,
2007-09-22, 03:32:00,VALID,916.365,VALID,0,VALID,100,VALID,0,VALID,18.9327,VALID,141,VALID,0.655556,
2007-09-22, 03:33:00,VALID,916.349,VALID,0,VALID,100,VALID,0,VALID,18.9322,VALID,140,VALID,0.469131,
2007-09-22, 03:34:00,VALID,916.351,VALID,0,VALID,100,VALID,-0.0169808,VALID,18.9387,VALID,138,VALID,0.667783,
2007-09-22, 03:35:00,VALID,916.34,VALID,0,VALID,100,VALID,-0.0169808,VALID,18.9617,VALID,138,VALID,0.679501,
2007-09-22, 03:36:00,VALID,916.341,VALID,0,VALID,100,VALID,0,VALID,18.9617,VALID,138,VALID,0.726381,
2007-09-22, 03:37:00,VALID,916.345,VALID,0,VALID,100,VALID,-0.0169808,VALID,18.9716,VALID,139,VALID,0.725654,
2007-09-22, 03:38:00,VALID,916.344,VALID,0,VALID,100,VALID,0,VALID,18.9582,VALID,141,VALID,0.823583,
2007-09-22, 03:39:00,VALID,916.324,VALID,0,VALID,100,VALID,0,VALID,18.9809,VALID,141,VALID,0.692649,
2007-09-22, 03:40:00,VALID,916.331,VALID,0,VALID,100,VALID,0.0169808,VALID,18.9647,VALID,145,VALID,0.841974,
2007-09-22, 03:41:00,VALID,916.327,VALID,0,VALID,100,VALID,0.0169808,VALID,18.9644,VALID,148,VALID,0.790698,
2007-09-22, 03:42:00,VALID,916.341,VALID,0,VALID,100,VALID,0,VALID,18.9714,VALID,141,VALID,0.542039,
2007-09-22, 03:43:00,VALID,916.355,VALID,0,VALID,100,VALID,0.0339617,VALID,18.9584,VALID,147,VALID,0.493676,